SCP
1 1 1 1 1 1 1 0 0 0 0 0 0 0 0 0 0 0 0 0 0 0 0 0 0 0 0 0 0 0 0 0 0 0 0 0 0 0 0 0 0 0 0
1 1 1 1 1 1 1 0 0 0 0 0 0 0 0 0 0 0 0 0 0 0 0 0 0 0 0 0 0 0 0 0 0 0 0 0 0 0 0 0 0 0 0
1 1 1 1 1 1 0 0 0 0 0 0 0 0 0 0 0 0 0 0 0 0 0 0 0 0 0 0 0 0 0 0 0 0 0 0 0 0 0 0 0 0 0
1 1 1 1 1 0 0 0 0 0 0 0 0 0 0 0 0 0 0 0 0 0 0 0 0 0 0 0 0 0 0 0 0 0 0 0 0 0 0 0 0 0 0
1 1 1 0 0 0 0 0 0 0 0 0 0 0 0 0 0 0 0 0 0 0 0 0 0 0 0 0 0 0 0 0 0 0 0 0 0 0 0 0 0 0 0
0 0 0 0 0 0 0 0 0 0 0 0 0 0 0 0 0 0 0 0 0 0 0 0 0 0 0 0 0 0 0 0 0 0 0 0 0 0 0 0 0 0 0
0 0 0 0 0 0 0 0 0 0 0 0 0 0 0 0 0 0 0 0 0 0 0 0 0 0 0 0 0 0 0 0 0 0 0 0 0 0 0 0 0 0 0
0 0 0 0 0 0 0 0 0 0 0 0 0 0 0 0 0 0 0 0 0 0 0 0 0 0 0 0 0 0 0 0 0 0 0 0 0 0 0 0 0 0 0
0 0 0 0 0 0 0 0 0 0 0 0 0 0 0 0 0 0 0 0 0 0 0 0 0 0 0 0 0 0 0 0 0 0 0 0 0 0 0 0 0 0 0
0 0 0 0 0 0 0 0 0 0 0 0 0 0 0 0 0 0 0 0 0 0 0 0 0 0 0 0 0 0 0 0 0 0 0 0 0 0 0 0 0 0 0
0 0 0 0 0 0 0 0 0 0 0 0 0 0 0 0 0 0 0 0 0 0 0 0 0 0 0 0 0 0 0 0 0 0 0 0 0 0 0 0 0 0 0
0 0 0 0 0 0 0 0 0 0 0 0 0 0 0 0 0 0 0 0 0 0 0 0 0 0 0 0 0 0 0 0 0 0 0 0 0 0 0 0 0 0 0
0 0 0 0 0 0 0 0 0 0 0 0 0 0 0 0 0 0 0 0 0 0 0 0 0 0 0 0 0 0 0 0 0 0 0 0 0 0 0 0 0 0 0
0 0 0 0 0 0 0 0 0 0 0 0 0 0 0 0 0 0 0 0 0 0 0 0 0 0 0 0 0 0 0 0 0 0 0 0 0 0 0 0 0 0 0
0 0 0 0 0 0 0 0 0 0 0 0 0 0 0 0 0 0 0 0 0 0 0 0 0 0 0 0 0 0 0 0 0 0 0 0 0 0 0 0 0 0 0
0 0 0 0 0 0 0 0 0 0 0 0 0 0 0 0 0 0 0 0 0 0 0 0 0 0 0 0 0 0 0 0 0 0 0 0 0 0 0 0 0 0 0
0 0 0 0 0 0 0 0 0 0 0 0 0 0 0 0 0 0 0 0 0 0 0 0 0 0 0 0 0 0 0 0 0 0 0 0 0 0 0 0 0 0 0
0 0 0 0 0 0 0 0 0 0 0 0 0 0 0 0 0 0 0 0 0 0 0 0 0 0 0 0 0 0 0 0 0 0 0 0 0 0 0 0 0 0 0
0 0 0 0 0 0 0 0 0 0 0 0 0 0 0 0 0 0 0 0 0 0 0 0 0 0 0 0 0 0 0 0 0 0 0 0 0 0 0 0 0 0 0
0 0 0 0 0 0 0 0 0 0 0 0 0 0 0 0 0 0 0 0 0 0 0 0 0 0 0 0 0 0 0 0 0 0 0 0 0 0 0 0 0 0 0
0 0 0 0 0 0 0 0 0 0 0 0 0 0 0 0 0 0 0 0 0 0 0 0 0 0 0 0 0 0 0 0 0 0 0 0 0 0 0 0 0 0 0
0 0 0 0 0 0 0 0 0 0 0 0 0 0 0 0 0 0 0 0 0 0 0 0 0 0 0 0 0 0 0 0 0 0 0 0 0 0 0 0 0 0 0
0 0 0 0 0 0 0 0 0 0 0 0 0 0 0 0 0 0 0 0 0 0 0 0 0 0 0 0 0 0 0 0 0 0 0 0 0 0 0 0 0 0 0
0 0 0 0 0 0 0 0 0 0 0 0 0 0 0 0 0 0 0 0 0 0 0 0 0 0 0 0 0 0 0 0 0 0 0 0 0 0 0 0 0 0 0
0 0 0 0 0 0 0 0 0 0 0 0 0 0 0 0 0 0 0 0 0 0 0 0 0 0 0 0 0 0 0 0 0 0 0 0 0 0 0 0 0 0 0
0 0 0 0 0 0 0 0 0 0 0 0 0 0 0 0 0 0 0 0 0 0 0 0 0 0 0 0 0 0 0 0 0 0 0 0 0 0 0 0 0 0 0
Wind_Speed
5 6 8 9 9 8 8 9 9 9 8 6 6 6 5 4 3 3 5 6 5 6 5 4 4 4 4 4 4 3 3 2 1 2 2 2 2 1 0 1 1 3 3
6 7 8 8 9 10 9 9 10 10 10 7 6 4 4 4 3 3 4 5 6 6 6 5 5 4 4 4 3 3 3 2 1 3 2 2 3 2 1 1 2 2 2
9 8 8 8 9 9 10 9 9 9 9 8 5 5 3 3 2 3 3 4 6 6 5 6 5 5 5 4 4 4 4 3 1 1 3 3 2 2 2 1 1 1 1
7 8 9 9 10 10 9 8 9 9 9 9 8 9 7 5 5 4 4 4 5 6 6 6 6 5 4 5 4 4 3 4 3 1 1 2 3 2 1 2 1 1 2
7 8 9 9 8 8 8 7 8 9 10 10 10 9 6 4 3 4 5 4 4 5 6 6 6 5 4 5 4 4 4 3 3 3 2 2 1 1 2 1 2 2 1
5 5 5 6 6 6 7 7 8 8 9 10 9 9 8 7 7 6 6 4 3 3 5 5 5 5 5 5 5 4 5 3 3 3 2 3 3 2 2 2 1 1 2
5 6 7 7 6 7 8 8 8 8 8 9 9 8 8 8 9 8 7 6 4 3 5 5 5 5 5 5 5 5 4 4 4 4 2 2 2 2 3 2 1 1 2
5 6 7 7 6 7 7 8 8 8 8 8 8 7 7 6 5 6 6 6 5 5 5 6 6 6 6 6 5 4 4 4 4 4 3 2 2 2 3 3 3 1 1
6 7 7 7 7 7 7 8 8 8 8 8 7 6 7 6 6 6 6 5 4 5 6 6 6 6 6 6 6 4 4 4 4 4 3 2 1 2 2 2 2 3 1
6 6 6 7 6 6 6 7 7 7 7 7 7 6 6 6 6 6 7 6 6 5 7 6 6 5 5 6 5 4 4 4 3 3 3 2 1 1 1 2 1 2 3
7 7 6 6 6 6 6 6 6 6 7 7 7 6 6 5 5 6 7 7 6 7 7 6 6 6 6 6 5 5 5 5 4 3 4 3 3 2 1 2 2 2 2
7 7 6 7 7 7 6 7 6 6 6 7 6 6 6 6 6 6 6 6 6 7 7 7 6 6 6 6 6 6 5 6 5 4 4 3 3 2 2 2 2 1 2
6 6 6 6 7 7 6 6 6 6 5 6 6 6 6 6 6 6 5 6 6 6 6 6 6 6 6 6 5 5 5 5 4 4 4 3 3 3 2 2 1 1 1
7 7 6 6 6 5 5 6 5 5 6 6 6 6 6 6 6 5 5 6 6 6 6 5 5 5 5 5 5 5 5 5 4 4 3 3 3 3 3 2 2 2 2
6 7 7 6 6 5 5 5 5 6 6 7 6 6 6 6 6 5 5 6 6 6 6 5 5 4 4 4 6 6 6 6 6 5 5 5 6 6 4 3 2 3 2
6 6 6 6 6 6 6 6 5 6 6 7 7 6 6 6 6 6 6 6 6 6 6 6 5 4 3 5 7 7 6 6 6 6 5 6 7 9 10 10 9 6 4
4 5 5 5 5 6 7 7 6 6 7 6 6 6 7 7 6 7 7 7 6 7 7 6 6 6 5 7 9 10 8 7 6 6 5 5 6 7 8 12 14 13 13
3 4 4 5 5 5 5 5 6 6 6 6 6 6 7 7 7 7 7 7 6 7 7 7 7 7 7 10 11 13 10 9 8 7 6 7 6 6 7 8 10 9 9
2 3 3 4 5 6 7 7 6 6 6 6 6 6 7 8 8 8 7 7 8 8 7 7 8 9 8 11 12 12 9 9 9 8 8 8 8 9 9 9 9 8 7
2 3 4 4 5 4 6 7 7 7 7 7 7 7 7 8 9 9 8 7 8 9 9 9 8 9 8 10 12 12 8 9 8 8 8 11 10 11 10 8 8 7 5
4 4 4 4 3 4 6 7 6 6 6 7 7 8 8 8 9 9 9 10 10 11 11 11 9 9 9 10 11 10 7 8 8 7 6 7 12 12 11 9 7 6 5
5 5 4 4 4 4 6 7 5 5 7 8 9 9 9 8 9 11 10 10 11 12 11 10 9 7 8 9 11 13 12 9 9 7 6 7 11 12 11 8 8 8 6
5 4 5 5 5 5 6 8 6 7 9 10 10 10 10 10 9 10 11 9 8 8 8 8 8 7 6 8 14 14 14 13 9 7 10 10 11 10 9 11 10 7 5
5 4 6 7 6 6 7 9 8 8 10 11 11 10 11 11 10 8 7 7 7 8 8 8 8 7 6 6 6 7 8 11 10 8 10 12 12 9 8 8 7 6 5
5 5 6 8 8 8 8 9 9 10 12 12 11 11 11 11 11 10 9 8 7 6 8 7 7 8 7 5 7 6 6 5 6 6 5 5 5 6 5 5 5 4 4
6 7 8 9 9 9 9 9 9 11 13 12 11 9 9 9 10 11 12 17 14 16 15 12 9 8 9 10 12 11 10 9 9 7 6 5 5 4 4 4 4 4 4
Wind_Direction
175 155 150 154 153 163 171 174 172 169 165 163 166 167 174 170 173 183 179 176 172 167 164 162 157 158 158 160 147 122 112 97 104 89 48 17 22 32 261 244 236 235 230
168 160 156 159 164 175 179 181 181 175 174 173 171 166 158 161 171 176 173 176 170 171 173 166 167 164 149 144 149 134 121 102 106 119 97 33 354 344 348 263 236 243 233
181 173 167 170 171 178 184 186 184 178 174 164 148 136 121 111 141 170 172 182 174 175 171 170 164 163 158 161 163 154 144 139 107 111 137 143 213 292 321 312 281 259 234
178 177 178 180 182 185 183 181 177 174 170 163 163 165 167 174 183 177 173 171 173 173 171 167 165 162 159 159 166 160 150 141 144 118 96 135 152 151 306 320 320 290 246
183 182 184 186 182 178 177 177 172 172 168 168 173 176 172 175 162 154 163 169 171 174 170 164 162 161 162 161 157 151 152 147 152 154 145 124 96 116 148 267 319 329 298
186 180 175 170 169 165 164 164 166 169 166 167 172 177 172 167 161 163 169 169 167 169 169 166 165 165 164 165 162 158 158 152 144 150 153 154 155 170 162 181 248 293 306
184 177 171 168 165 161 159 158 162 164 163 166 175 180 177 176 176 173 174 170 170 176 178 172 169 168 169 165 157 155 159 158 155 160 161 159 159 151 148 148 164 277 312
174 172 174 170 166 161 159 159 163 164 167 173 181 181 178 177 178 178 172 176 180 178 170 170 172 171 166 162 155 151 161 161 162 165 158 151 160 159 161 157 149 134 330
171 167 166 166 165 163 165 164 163 164 169 174 176 178 178 178 178 177 172 172 172 166 167 170 170 167 163 159 154 155 161 157 163 164 160 152 155 162 165 156 156 154 185
171 165 166 163 162 162 160 159 163 169 172 173 177 180 181 180 177 174 175 176 173 165 163 166 164 162 161 158 153 151 156 153 158 157 154 148 143 144 146 155 156 157 166
174 171 166 161 156 154 156 160 166 169 172 175 176 176 177 175 170 175 181 176 171 166 167 168 165 166 165 162 161 161 159 160 159 156 156 156 145 141 146 138 142 154 159
165 163 161 159 161 163 166 169 173 179 181 174 172 175 174 170 171 180 179 169 167 169 169 165 165 171 170 168 169 167 165 165 166 164 156 161 147 137 135 137 150 165 180
151 153 158 167 169 168 167 170 173 177 174 169 170 171 170 169 172 175 166 159 158 160 161 161 165 168 168 167 168 163 159 160 161 156 154 156 144 137 131 128 132 136 142
155 157 163 167 165 163 163 166 171 170 165 162 164 167 169 165 162 157 152 151 150 150 152 154 155 158 159 162 160 152 146 140 133 128 128 129 135 138 133 118 112 109 100
159 163 168 168 160 158 160 169 165 161 159 154 155 158 151 141 135 134 136 135 139 145 142 138 134 138 146 158 154 147 141 130 116 101 96 96 97 96 97 98 97 99 95
173 169 164 163 163 165 165 166 164 158 152 151 153 146 134 132 133 134 130 126 124 121 118 120 126 126 135 137 141 134 126 123 117 107 92 83 79 81 79 78 74 74 82
167 171 170 171 169 166 162 165 168 153 149 150 147 145 143 141 141 137 128 128 126 117 110 110 109 105 101 115 120 120 115 109 104 100 94 86 78 79 84 77 70 62 59
169 173 170 169 166 155 148 148 147 148 148 146 144 142 140 139 133 128 126 124 115 112 109 105 104 101 94 100 106 108 102 94 87 86 91 93 84 82 92 88 78 69 57
168 166 161 159 155 154 152 142 142 145 147 149 148 148 146 141 134 129 124 120 114 106 100 98 101 99 91 95 104 104 100 94 84 77 77 85 82 77 88 91 85 73 59
82 113 121 124 136 148 146 142 145 147 154 155 152 143 140 137 132 127 119 109 106 104 99 90 86 90 90 92 101 105 106 101 94 81 73 73 81 79 80 85 87 78 55
73 87 105 111 126 134 136 140 145 152 151 139 130 125 124 123 121 118 114 112 108 103 96 89 79 76 78 78 84 94 103 109 102 91 80 74 79 80 79 80 81 86 84
68 82 93 92 97 117 127 126 129 124 119 120 118 117 114 114 117 115 110 110 111 107 102 96 84 71 68 73 80 82 87 97 100 96 90 87 83 79 77 76 79 78 73
61 74 95 91 81 88 111 114 108 114 115 112 109 108 105 102 108 113 114 109 107 107 106 102 97 85 74 72 75 81 87 91 93 94 96 91 86 79 72 68 68 65 63
62 73 97 100 91 86 93 103 108 111 108 104 102 101 101 96 90 88 94 103 109 112 109 106 104 96 85 81 82 85 88 88 91 91 87 81 73 71 65 58 52 51 54
68 72 83 93 93 94 94 98 104 107 103 98 97 95 93 95 88 79 70 77 68 100 114 111 111 110 103 93 102 107 102 104 109 106 89 78 72 66 59 54 46 42 42
85 85 85 88 91 93 91 89 95 103 106 102 98 96 98 97 97 96 80 62 72 75 80 91 101 92 102 107 99 97 99 102 109 97 88 82 77 71 62 55 46 37 31